TimeMDT,TemperatureF,Dew PointF,Humidity,Sea Level PressureIn,VisibilityMPH,Wind Direction,Wind SpeedMPH,Gust SpeedMPH,PrecipitationIn,Events,Conditions,WindDirDegrees,DateUTC
12:15 AM,72.9,70.2,91,30.04,10.0,ESE,4.6,-,N/A,Thunderstorm,Mostly Cloudy,110,2013-10-13 06:15:00
12:35 AM,73.4,70.7,91,30.06,10.0,East,3.5,-,N/A,,Overcast,90,2013-10-13 06:35:00
12:55 AM,73.4,71.6,94,30.06,10.0,East,4.6,-,N/A,,Overcast,100,2013-10-13 06:55:00
1:15 AM,72.3,71.2,96,30.06,10.0,Calm,Calm,-,N/A,Thunderstorm,Overcast,0,2013-10-13 07:15:00
1:35 AM,70.5,68.7,94,30.07,10.0,North,8.1,-,N/A,Thunderstorm,Overcast,360,2013-10-13 07:35:00
1:55 AM,69.8,69.1,98,30.09,5.0,NNE,6.9,-,0.08,Rain,Heavy Rain,20,2013-10-13 07:55:00
2:15 AM,68.9,68.9,100,30.08,3.0,ENE,4.6,-,0.29,Rain-Thunderstorm,Rain,60,2013-10-13 08:15:00
2:35 AM,69.1,69.1,100,30.07,7.0,NE,4.6,-,0.31,Rain-Thunderstorm,Thunderstorms and Rain,50,2013-10-13 08:35:00
2:55 AM,69.3,69.3,100,30.07,10.0,East,9.2,-,0.32,,Light Drizzle,80,2013-10-13 08:55:00
3:15 AM,69.1,69.1,100,30.06,10.0,East,9.2,-,N/A,Thunderstorm,Unknown,80,2013-10-13 09:15:00
3:35 AM,68.9,68.9,100,30.07,10.0,East,6.9,-,N/A,Thunderstorm,Unknown,80,2013-10-13 09:35:00
3:55 AM,68.9,68.9,100,30.07,10.0,East,5.8,-,N/A,,Overcast,90,2013-10-13 09:55:00
4:15 AM,68.9,68.9,100,30.06,10.0,East,5.8,-,N/A,Rain-Thunderstorm,Light Thunderstorms and Rain,80,2013-10-13 10:15:00
4:35 AM,68.9,68.9,100,30.07,10.0,ESE,4.6,-,0.01,Rain-Thunderstorm,Rain,120,2013-10-13 10:35:00
4:55 AM,68.9,68.9,100,30.09,7.0,SE,4.6,-,0.06,Rain-Thunderstorm,Rain,130,2013-10-13 10:55:00
5:15 AM,68.4,68.4,100,30.10,5.0,SE,6.9,-,0.06,Rain,Rain,140,2013-10-13 11:15:00
5:35 AM,67.3,67.3,100,30.09,5.0,ESE,9.2,-,0.12,Rain,Heavy Rain,120,2013-10-13 11:35:00
5:55 AM,66.6,66.6,100,30.10,5.0,ESE,8.1,-,0.20,Rain,Rain,120,2013-10-13 11:55:00
6:15 AM,66.4,66.4,100,30.12,7.0,SE,10.4,-,0.06,Rain,Rain,140,2013-10-13 12:15:00
6:35 AM,66.0,66.0,100,30.11,5.0,SE,9.2,-,0.14,Rain,Rain,140,2013-10-13 12:35:00
6:55 AM,65.5,65.5,100,30.12,7.0,SSE,11.5,21.9,0.22,Rain,Rain,150,2013-10-13 12:55:00
7:15 AM,65.3,65.3,100,30.13,10.0,SE,9.2,16.1,0.02,Rain,Light Rain,140,2013-10-13 13:15:00
7:35 AM,65.3,65.3,100,30.15,5.0,SSE,6.9,-,0.07,Rain,Rain,150,2013-10-13 13:35:00
7:55 AM,65.5,65.5,100,30.17,7.0,SSE,6.9,-,0.14,Rain,Rain,160,2013-10-13 13:55:00
8:15 AM,65.5,65.5,100,30.17,7.0,SSE,5.8,-,0.02,Rain,Rain,150,2013-10-13 14:15:00
8:35 AM,66.0,66.0,100,30.18,7.0,Calm,Calm,-,0.06,Rain,Rain,0,2013-10-13 14:35:00
8:55 AM,66.4,66.4,100,30.18,10.0,Calm,Calm,-,0.08,Rain,Light Rain,0,2013-10-13 14:55:00
9:15 AM,66.9,66.9,100,30.18,10.0,SSE,5.8,-,N/A,,Drizzle,150,2013-10-13 15:15:00
9:55 AM,68.0,68.0,100,30.17,10.0,SE,3.5,-,N/A,,Light Drizzle,130,2013-10-13 15:55:00
10:15 AM,68.5,68.5,100,30.17,10.0,Calm,Calm,-,N/A,,Overcast,0,2013-10-13 16:15:00
10:35 AM,68.9,68.9,100,30.17,10.0,East,4.6,-,N/A,,Overcast,90,2013-10-13 16:35:00
10:55 AM,68.9,68.9,100,30.17,10.0,ESE,3.5,-,N/A,,Overcast,120,2013-10-13 16:55:00
11:15 AM,69.3,69.3,100,30.17,10.0,SE,4.6,-,N/A,,Overcast,130,2013-10-13 17:15:00
11:35 AM,69.8,69.8,100,30.17,10.0,Calm,Calm,-,N/A,Rain,Light Rain,0,2013-10-13 17:35:00
11:55 AM,70.5,70.5,100,30.16,10.0,SSE,3.5,-,0.01,Rain,Light Rain,150,2013-10-13 17:55:00
12:15 PM,71.1,71.1,100,30.15,10.0,Calm,Calm,-,N/A,,Light Drizzle,0,2013-10-13 18:15:00
12:35 PM,71.6,71.6,100,30.13,10.0,SE,5.8,-,N/A,Rain,Light Rain,140,2013-10-13 18:35:00
12:55 PM,72.1,72.0,99,30.11,10.0,SE,4.6,-,N/A,,Light Drizzle,130,2013-10-13 18:55:00
1:15 PM,73.0,71.4,95,30.09,10.0,ESE,5.8,-,N/A,,Light Drizzle,110,2013-10-13 19:15:00
1:35 PM,74.1,69.4,85,30.07,10.0,ESE,3.5,-,N/A,,Mostly Cloudy,110,2013-10-13 19:35:00
1:55 PM,75.2,68.7,80,30.06,10.0,SE,3.5,-,N/A,,Scattered Clouds,130,2013-10-13 19:55:00
2:15 PM,74.5,67.6,79,30.05,10.0,East,4.6,-,N/A,,Scattered Clouds,100,2013-10-13 20:15:00
2:35 PM,73.6,67.3,81,30.05,10.0,ESE,6.9,-,N/A,,Scattered Clouds,110,2013-10-13 20:35:00
2:55 PM,73.0,67.3,82,30.07,10.0,East,5.8,-,N/A,,Mostly Cloudy,100,2013-10-13 20:55:00
3:15 PM,73.2,67.6,83,30.07,10.0,ESE,5.8,-,N/A,,Overcast,110,2013-10-13 21:15:00
3:35 PM,73.0,68.0,84,30.07,10.0,Calm,Calm,-,N/A,,Light Drizzle,0,2013-10-13 21:35:00
3:55 PM,72.9,68.4,86,30.08,10.0,Calm,Calm,-,N/A,,Overcast,0,2013-10-13 21:55:00
4:15 PM,72.3,69.1,89,30.07,7.0,ESE,4.6,-,0.01,Rain,Light Rain,110,2013-10-13 22:15:00
4:35 PM,71.6,71.4,99,30.07,10.0,East,8.1,-,0.02,Rain,Light Rain,80,2013-10-13 22:35:00
4:55 PM,70.7,70.7,100,30.09,10.0,East,3.5,-,0.02,Rain,Light Rain,100,2013-10-13 22:55:00
5:15 PM,70.7,70.7,100,30.09,10.0,East,3.5,-,N/A,Rain,Rain,90,2013-10-13 23:15:00
5:35 PM,70.7,70.7,100,30.09,7.0,East,3.5,-,N/A,,Drizzle,90,2013-10-13 23:35:00
5:55 PM,70.7,70.7,100,30.10,5.0,Calm,Calm,-,0.01,Rain,Rain,0,2013-10-13 23:55:00
6:15 PM,70.5,70.5,100,30.10,7.0,East,8.1,-,N/A,,Drizzle,90,2013-10-14 00:15:00
6:35 PM,69.8,69.8,100,30.11,7.0,East,4.6,-,N/A,,Overcast,80,2013-10-14 00:35:00
6:55 PM,69.8,69.8,100,30.10,10.0,East,3.5,-,N/A,,Overcast,100,2013-10-14 00:55:00
7:15 PM,69.8,69.8,100,30.10,7.0,East,3.5,-,N/A,Rain,Rain,90,2013-10-14 01:15:00
7:35 PM,69.8,69.8,100,30.11,10.0,Calm,Calm,-,N/A,Rain,Rain,0,2013-10-14 01:35:00
7:55 PM,69.8,69.8,100,30.11,7.0,East,4.6,-,0.01,Rain,Rain,90,2013-10-14 01:55:00
8:15 PM,69.8,69.8,100,30.12,4.0,East,3.5,-,0.01,,Heavy Drizzle,100,2013-10-14 02:15:00
8:35 PM,69.8,69.8,100,30.12,7.0,East,3.5,-,0.01,,Drizzle,100,2013-10-14 02:35:00
8:55 PM,70.0,70.0,100,30.11,5.0,ESE,4.6,-,0.02,,Light Drizzle,120,2013-10-14 02:55:00
9:15 PM,70.2,70.2,100,30.11,5.0,East,4.6,-,N/A,,Drizzle,100,2013-10-14 03:15:00
9:35 PM,70.2,70.2,100,30.12,7.0,ESE,3.5,-,N/A,,Overcast,110,2013-10-14 03:35:00
9:55 PM,70.5,70.5,100,30.12,7.0,ESE,4.6,-,N/A,Rain,Rain,120,2013-10-14 03:55:00
10:15 PM,70.7,70.7,100,30.12,7.0,ESE,4.6,-,N/A,,Overcast,120,2013-10-14 04:15:00
10:35 PM,70.7,70.7,100,30.11,4.0,SE,5.8,-,N/A,Rain,Rain,130,2013-10-14 04:35:00
10:55 PM,70.7,70.7,100,30.11,4.0,ESE,5.8,-,0.05,Rain,Heavy Rain,120,2013-10-14 04:55:00
11:15 PM,70.7,70.7,100,30.10,7.0,SE,4.6,-,N/A,,Light Drizzle,130,2013-10-14 05:15:00
11:35 PM,70.9,70.9,100,30.10,10.0,SE,4.6,-,N/A,,Overcast,140,2013-10-14 05:35:00
11:55 PM,70.9,70.9,100,30.10,7.0,SE,5.8,-,N/A,Rain,Rain,140,2013-10-14 05:55:00